318  
ASUS43 KIND 210259  
RWRIN  
 
WEATHER ROUNDUP FOR INDIANA  
NATIONAL WEATHER SERVICE INDIANAPOLIS IN  
1100 PM EDT MON AUG 20 2018  
 
NOTE: "FAIR" INDICATES FEW OR NO CLOUDS BELOW 12,000 FEET WITH NO  
SIGNIFICANT WEATHER AND/OR S TO VISIBILITY
.  
 
* - STATION DOES NOT REPORT WEATHER SUCH AS PRECIPITATION OR FOG.
 
 
+ - STATION NOT QUALITY CONTROLLED BY THE NATIONAL WEATHER SERVICE.  
USE DATA WITH CAUTION...ESPECIALLY DEWPOINT AND RELATIVE  
HUMIDITY OBSERVATIONS.  
 
INZ001>003-010>013-019-020-210400-  
NORTHWEST INDIANA  
 
CITY SKY/WX TMP DP RH WIND PRES REMARKS
 
GARY /AIRPORT/ LGT RAIN 68 68 100 N7 29.82F  
MICHIGAN CITY+ MOCLDY 72 68 88 SE8 29.82S  
MONTICELLO + MOCLDY 70 69 95 CALM 29.82S  
 

 
 
LMZ046-743>745-210400-  
SOUTHERN LAKE MICHIGAN  
 
STATION/POSITION TIME TEMP WIND PRES WAVE
 
AIR SEA DIR/SP/G HT  
(UTC) (F) (DEG/KT/KT) (MB) (FT)  
BURNS HARBOR 0240 69 1010.2R  
MICHIGAN CITY 0230 73 110/ 8/ 12 N/A  
5NW MICH CITY 0250 74 77 150/ 14/ 16 N/A 2  
 

 
 
INZ004-005-014>016-021>024-210400-  
NORTH CENTRAL INDIANA  
 
CITY SKY/WX TMP DP RH WIND PRES REMARKS
 
GOSHEN RAIN 70 69 97 SE7 29.85S FOG  
PERU/GRISSOM MOCLDY 70 70 100 CALM 29.83F  
SOUTH BEND FAIR 70 66 87 SE14 29.85S  
 

 
 
INZ006>009-017-018-025>027-210400-  
NORTHEAST INDIANA  
 
CITY SKY/WX TMP DP RH WIND PRES REMARKS
 
FORT WAYNE CLOUDY 71 70 96 E6 29.86F  
KENDALLVILLE + MOCLDY 68 67 96 E5 29.88S  
 

 
 
INZ028-029-035-036-043>045-051>053-210400-  
WEST CENTRAL INDIANA  
 
CITY SKY/WX TMP DP RH WIND PRES REMARKS
 
CRAWFORDSVL + FAIR 71 71 100 SE3 29.82F  
LAFAYETTE FAIR 73 71 93 E3 29.80F  
TERRE HAUTE CLOUDY 74 71 91 S3 29.80F  
 

 
 
INZ030>032-037>040-046>048-054>057-064-065-210400-  
CENTRAL INDIANA  
 
CITY SKY/WX TMP DP RH WIND PRES REMARKS
 
ANDERSON + FAIR 74 71 90 S6 29.86F  
INDIANAPOLIS FAIR 74 68 81 S9 29.83S  
-EAGLE CREEK FAIR 75 69 81 S5 29.83S  
KOKOMO + FAIR 70 69 97 SE3 29.84F  
SHELBYVILLE FAIR 69 66 90 SE5 29.84F  
 

 
 
INZ033-034-041-042-049-050-058-059-210400-  
EAST CENTRAL INDIANA  
 
CITY SKY/WX TMP DP RH WIND PRES REMARKS
 
MUNCIE FAIR 77 71 82 S7 29.85F  
RICHMOND + HVY RAIN 66 66 100 NW8 29.93R  
 

 
 
INZ060-061-067>069-081>083-085>088-210400-  
SOUTHWEST INDIANA  
 
CITY SKY/WX TMP DP RH WIND PRES REMARKS
 
EVANSVILLE FAIR 78 71 79 S15G24 29.82R  
HUNTINGBURG + FAIR 77 73 87 SE8 29.82F  
 

 
 
INZ062-063-066-070>080-084-089>092-210400-  
SOUTH CENTRAL AND SOUTHEAST INDIANA  
 
CITY SKY/WX TMP DP RH WIND PRES REMARKS
 
BLOOMINGTON MOCLDY 72 71 97 SE7 29.83F  
FRENCH LICK *+ FAIR 72 64 78 SE5 29.84F  
SEYMOUR + FAIR 75 70 83 CALM 29.84F  
 

 
 
 
 
CLICK HERE TO GO TO PREVIOUS BULLETINS.

The Nexlab IN Page Main Text Page